Hourly Data Report for May 16, 2012

All times are specified in Local Standard Time (LST). Add 1 hour to adjust for Daylight Saving Time where and when it is observed.

SAULT STE MARIE A
ONTARIO

46°29'06.000" N
84°30'35.000" W
192.00 m
6057591
71260
YAM

Related Data

No related data is available for this station

Download Data

Hourly Data (May 2012)
Hourly Data Report for May 16, 2012
Temp Definition
°C
Dew Point Temp Definition
°C
Rel Hum Definition
%
Wind Dir Definition
10's deg

Wind Spd Definition
km/h
Visibility Definition
km
Stn Press Definition
kPa
Hmdx Definition


Wind Chill Definition


Weather Definition


TIME
00:00 Legend Double Dagger 5.7 3.2 84 31 31 10.0 98.94     LegendNANA
01:00 Legend Double Dagger 5.6 3.1 84 32 26 10.0 98.97     Mostly Cloudy
02:00 Legend Double Dagger 5.2 2.7 84 32 26 10.0 99.03     LegendNANA
03:00 Legend Double Dagger 4.7 2.4 85 33 20 10.0 99.07     LegendNANA
04:00 Legend Double Dagger 4.5 3.0 90 32 22 10.0 99.18     Mainly Clear
05:00 Legend Double Dagger 4.1 2.9 92 33 21 10.0 99.21     LegendNANA
06:00 Legend Double Dagger 5.0 3.0 87 31 17 10.0 99.26     LegendNANA
07:00 Legend Double Dagger 6.6 3.9 83 33 21 10.0 99.36     Mainly Clear
08:00 Legend Double Dagger 7.4 3.8 78 31 22 10.0 99.40     LegendNANA
09:00 Legend Double Dagger 7.4 4.5 82 30 22 10.0 99.45     LegendNANA
10:00 Legend Double Dagger 8.8 4.4 74 30 28 10.0 99.44     Mostly Cloudy
11:00 Legend Double Dagger 9.0 4.8 75 30 33 10.0 99.49     LegendNANA
12:00 Legend Double Dagger 9.3 3.9 69 30 33 10.0 99.53     LegendNANA
13:00 Legend Double Dagger 9.1 2.5 63 31 36 10.0 99.54     Mainly Clear
14:00 Legend Double Dagger 10.1 1.5 55 30 34 10.0 99.57     LegendNANA
15:00 Legend Double Dagger 9.4 2.3 61 30 34 10.0 99.58     LegendNANA
16:00 Legend Double Dagger 9.2 0.4 54 30 34 10.0 99.60     Mainly Clear
17:00 Legend Double Dagger 8.9 -0.4 52 30 33 10.0 99.63     LegendNANA
18:00 Legend Double Dagger 8.5 -0.8 52 31 31 10.0 99.65     LegendNANA
19:00 Legend Double Dagger 7.9 -1.1 53 30 20 10.0 99.68     Mainly Clear
20:00 Legend Double Dagger 6.0 -1.4 59 34 8 10.0 99.70     LegendNANA
21:00 Legend Double Dagger 4.2 -1.6 66 2 9 10.0 99.74     LegendNANA
22:00 Legend Double Dagger 3.6 -1.2 71 30 11 10.0 99.73     Mainly Clear
23:00 Legend Double Dagger 2.5 -1.1 77 32 6 10.0 99.74     LegendNANA

Notes on Data Quality.

Legend

  • E = Estimated
  • M = Missing
  • NA = Not Available
  • ‡ = Partner data that is not subject to review by the National Climate Archives
Date modified: